Time,TemperatureF,DewpointF,PressureIn,WindDirection,WindDirectionDegrees,WindSpeedMPH,WindSpeedGustMPH,Humidity,HourlyPrecipIn,Conditions,Clouds,dailyrainin,SoftwareType,DateUTC
2013-03-07 00:02:00,40.0,30.0,29.96,NE,37,5.0,11.0,68,0.00,,,0.03,,2013-03-07 05:02:00,
2013-03-07 00:12:00,40.0,30.0,29.96,NE,37,5.0,11.0,68,0.00,,,0.03,,2013-03-07 05:12:00,
2013-03-07 00:22:00,40.0,30.0,29.96,NE,37,5.0,11.0,68,0.00,,,0.03,,2013-03-07 05:22:00,
2013-03-07 00:32:00,40.0,30.0,29.96,NE,41,6.0,15.0,67,0.00,,,0.03,,2013-03-07 05:32:00,
2013-03-07 00:42:00,40.0,30.0,29.96,NE,41,6.0,15.0,67,0.00,,,0.03,,2013-03-07 05:42:00,
2013-03-07 00:52:00,40.0,30.0,29.96,NE,41,6.0,15.0,67,0.00,,,0.03,,2013-03-07 05:52:00,
2013-03-07 01:02:00,39.0,29.0,29.96,NE,43,4.0,10.0,68,0.00,,,0.03,,2013-03-07 06:02:00,
2013-03-07 01:11:00,39.0,29.0,29.96,NE,43,4.0,10.0,68,0.00,,,0.03,,2013-03-07 06:11:00,
2013-03-07 01:22:00,39.0,30.0,29.96,NE,54,4.0,11.0,69,0.00,,,0.03,,2013-03-07 06:22:00,
2013-03-07 01:32:00,39.0,29.0,29.96,NE,43,5.0,14.0,68,0.00,,,0.03,,2013-03-07 06:32:00,
2013-03-07 01:42:00,39.0,29.0,29.96,NE,45,6.0,14.0,68,0.00,,,0.03,,2013-03-07 06:42:00,
2013-03-07 01:52:00,39.0,29.0,29.96,NE,45,6.0,14.0,68,0.00,,,0.03,,2013-03-07 06:52:00,
2013-03-07 02:01:00,39.0,29.0,29.96,NE,49,5.0,12.0,68,0.00,,,0.03,,2013-03-07 07:01:00,
2013-03-07 02:11:00,39.0,29.0,29.96,NE,49,5.0,12.0,68,0.00,,,0.03,,2013-03-07 07:11:00,
2013-03-07 02:21:00,39.0,30.0,29.96,NE,48,6.0,16.0,69,0.00,,,0.03,,2013-03-07 07:21:00,
2013-03-07 02:32:00,39.0,30.0,29.96,NE,53,6.0,24.0,69,0.00,,,0.03,,2013-03-07 07:32:00,
2013-03-07 02:43:00,39.0,30.0,29.96,NE,53,6.0,24.0,69,0.00,,,0.03,,2013-03-07 07:43:00,
2013-03-07 02:52:00,38.0,29.0,29.95,NE,53,6.0,15.0,70,0.00,,,0.03,,2013-03-07 07:52:00,
2013-03-07 03:03:00,38.0,29.0,29.94,NE,51,6.0,17.0,71,0.00,,,0.03,,2013-03-07 08:03:00,
2013-03-07 03:12:00,38.0,29.0,29.94,NE,51,6.0,17.0,71,0.00,,,0.03,,2013-03-07 08:12:00,
2013-03-07 03:23:00,38.0,30.0,29.94,NE,54,6.0,15.0,72,0.00,,,0.03,,2013-03-07 08:23:00,
2013-03-07 03:33:00,38.0,30.0,29.94,NE,54,6.0,15.0,72,0.00,,,0.03,,2013-03-07 08:33:00,
2013-03-07 03:44:00,38.0,30.0,29.94,NE,54,6.0,15.0,72,0.00,,,0.03,,2013-03-07 08:44:00,
2013-03-07 03:54:00,38.0,30.0,29.95,NE,53,7.0,16.0,72,0.00,,,0.03,,2013-03-07 08:54:00,
2013-03-07 04:03:00,38.0,29.0,29.95,ENE,59,5.0,12.0,71,0.00,,,0.03,,2013-03-07 09:03:00,
2013-03-07 04:14:00,38.0,29.0,29.95,ENE,59,5.0,12.0,71,0.00,,,0.03,,2013-03-07 09:14:00,
2013-03-07 04:23:00,38.0,29.0,29.96,NE,52,7.0,14.0,70,0.00,,,0.03,,2013-03-07 09:23:00,
2013-03-07 04:33:00,38.0,29.0,29.97,NE,56,6.0,13.0,69,0.00,,,0.03,,2013-03-07 09:33:00,
2013-03-07 04:43:00,38.0,29.0,29.97,NE,56,6.0,13.0,69,0.00,,,0.03,,2013-03-07 09:43:00,
2013-03-07 04:53:00,38.0,29.0,29.97,NE,51,7.0,12.0,69,0.00,,,0.03,,2013-03-07 09:53:00,
2013-03-07 05:03:00,38.0,29.0,29.97,NE,51,7.0,12.0,69,0.00,,,0.03,,2013-03-07 10:03:00,
2013-03-07 05:13:00,38.0,29.0,29.97,NE,51,7.0,12.0,69,0.00,,,0.03,,2013-03-07 10:13:00,
2013-03-07 05:23:00,38.0,29.0,29.97,NE,51,7.0,12.0,69,0.00,,,0.03,,2013-03-07 10:23:00,
2013-03-07 05:43:00,38.0,29.0,29.99,NE,41,5.0,11.0,69,0.00,,,0.03,,2013-03-07 10:43:00,
2013-03-07 05:53:00,38.0,29.0,29.99,NE,41,5.0,11.0,69,0.00,,,0.03,,2013-03-07 10:53:00,
2013-03-07 06:03:00,38.0,29.0,29.99,NE,41,5.0,11.0,69,0.00,,,0.03,,2013-03-07 11:03:00,
2013-03-07 06:12:00,38.0,29.0,29.99,NE,41,5.0,11.0,69,0.00,,,0.03,,2013-03-07 11:12:00,
2013-03-07 06:23:00,38.0,29.0,30.00,NE,54,5.0,13.0,69,0.00,,,0.03,,2013-03-07 11:23:00,
2013-03-07 06:34:00,38.0,29.0,30.00,NE,54,5.0,13.0,69,0.00,,,0.03,,2013-03-07 11:34:00,
2013-03-07 06:44:00,38.0,29.0,30.00,NE,54,5.0,13.0,69,0.00,,,0.03,,2013-03-07 11:44:00,
2013-03-07 06:54:00,37.0,29.0,30.00,NE,47,4.0,13.0,72,0.00,,,0.03,,2013-03-07 11:54:00,
2013-03-07 07:03:00,37.0,29.0,30.00,NNE,31,4.0,11.0,74,0.00,,,0.03,,2013-03-07 12:03:00,
2013-03-07 07:12:00,37.0,29.0,30.00,NNE,31,4.0,11.0,74,0.00,,,0.03,,2013-03-07 12:12:00,
2013-03-07 07:23:00,36.0,29.0,30.02,NE,51,4.0,10.0,77,0.00,,,0.03,,2013-03-07 12:23:00,
2013-03-07 07:34:00,36.0,30.0,30.01,NE,42,5.0,11.0,79,0.00,,,0.03,,2013-03-07 12:34:00,
2013-03-07 07:43:00,36.0,30.0,30.01,NE,42,5.0,11.0,79,0.00,,,0.03,,2013-03-07 12:43:00,
2013-03-07 07:53:00,36.0,30.0,30.01,NE,42,5.0,11.0,79,0.00,,,0.03,,2013-03-07 12:53:00,
2013-03-07 08:03:00,36.0,30.0,30.03,NE,50,4.0,8.0,79,0.00,,,0.03,,2013-03-07 13:03:00,
2013-03-07 08:12:00,36.0,30.0,30.03,NE,50,4.0,8.0,79,0.00,,,0.03,,2013-03-07 13:12:00,
2013-03-07 08:23:00,36.0,30.0,30.03,NE,50,4.0,8.0,79,0.00,,,0.03,,2013-03-07 13:23:00,
2013-03-07 08:32:00,36.0,31.0,30.03,NE,42,4.0,10.0,82,0.00,,,0.03,,2013-03-07 13:32:00,
2013-03-07 08:42:00,36.0,31.0,30.03,NE,42,4.0,10.0,82,0.00,,,0.03,,2013-03-07 13:42:00,
2013-03-07 08:53:00,35.0,31.0,30.03,NE,35,5.0,10.0,84,0.00,,,0.03,,2013-03-07 13:53:00,
2013-03-07 09:02:00,35.0,31.0,30.03,NE,42,5.0,12.0,85,0.00,,,0.03,,2013-03-07 14:02:00,
2013-03-07 09:12:00,35.0,31.0,30.03,NE,42,5.0,12.0,85,0.00,,,0.03,,2013-03-07 14:12:00,
2013-03-07 09:23:00,36.0,31.0,30.03,NE,48,5.0,14.0,81,0.00,,,0.03,,2013-03-07 14:23:00,
2013-03-07 09:33:00,36.0,31.0,30.03,NE,48,5.0,14.0,81,0.00,,,0.03,,2013-03-07 14:33:00,
2013-03-07 09:42:00,36.0,31.0,30.03,NE,48,5.0,14.0,81,0.00,,,0.03,,2013-03-07 14:42:00,
2013-03-07 09:54:00,37.0,30.0,30.03,NE,50,5.0,11.0,76,0.00,,,0.03,,2013-03-07 14:54:00,
2013-03-07 10:03:00,37.0,30.0,30.03,NE,46,5.0,16.0,77,0.00,,,0.03,,2013-03-07 15:03:00,
2013-03-07 10:12:00,37.0,30.0,30.03,NE,46,5.0,16.0,77,0.00,,,0.03,,2013-03-07 15:12:00,
2013-03-07 10:23:00,37.0,30.0,30.03,NE,46,5.0,16.0,77,0.00,,,0.03,,2013-03-07 15:23:00,
2013-03-07 10:33:00,38.0,31.0,30.03,NE,44,6.0,13.0,77,0.00,,,0.03,,2013-03-07 15:33:00,
2013-03-07 10:43:00,38.0,31.0,30.03,NE,44,6.0,13.0,77,0.00,,,0.03,,2013-03-07 15:43:00,
2013-03-07 10:53:00,38.0,31.0,30.03,NE,44,6.0,13.0,77,0.00,,,0.03,,2013-03-07 15:53:00,
2013-03-07 11:02:00,38.0,32.0,30.03,NE,38,4.0,8.0,80,0.00,,,0.03,,2013-03-07 16:02:00,
2013-03-07 11:13:00,38.0,32.0,30.03,NE,38,4.0,8.0,80,0.00,,,0.03,,2013-03-07 16:13:00,
2013-03-07 11:33:00,38.0,32.0,30.03,NE,38,4.0,8.0,80,0.00,,,0.03,,2013-03-07 16:33:00,
2013-03-07 11:43:00,38.0,32.0,30.03,NE,38,4.0,8.0,80,0.00,,,0.03,,2013-03-07 16:43:00,
2013-03-07 12:03:00,37.0,33.0,30.03,NNE,29,5.0,14.0,85,0.00,,,0.03,,2013-03-07 17:03:00,
2013-03-07 12:12:00,37.0,33.0,30.03,NNE,29,5.0,14.0,85,0.00,,,0.03,,2013-03-07 17:12:00,
2013-03-07 12:23:00,37.0,33.0,30.03,NNE,29,5.0,14.0,85,0.00,,,0.03,,2013-03-07 17:23:00,
2013-03-07 12:33:00,37.0,33.0,30.03,NNE,29,5.0,14.0,85,0.00,,,0.03,,2013-03-07 17:33:00,
2013-03-07 12:43:00,37.0,33.0,30.03,NNE,29,5.0,14.0,85,0.00,,,0.03,,2013-03-07 17:43:00,
2013-03-07 12:55:00,38.0,33.0,30.03,NE,35,3.0,11.0,83,0.00,,,0.03,,2013-03-07 17:55:00,
2013-03-07 13:13:00,38.0,33.0,30.03,NE,35,3.0,11.0,83,0.00,,,0.03,,2013-03-07 18:13:00,
2013-03-07 13:22:00,39.0,32.0,30.02,NNE,28,4.0,9.0,76,0.00,,,0.02,,2013-03-07 18:22:00,
2013-03-07 13:32:00,39.0,32.0,30.03,NNE,20,4.0,12.0,77,0.00,,,0.02,,2013-03-07 18:32:00,
2013-03-07 13:43:00,39.0,32.0,30.03,NNE,20,4.0,12.0,77,0.00,,,0.02,,2013-03-07 18:43:00,
2013-03-07 13:53:00,39.0,32.0,30.03,NE,45,5.0,12.0,77,0.00,,,0.01,,2013-03-07 18:53:00,
2013-03-07 14:03:00,39.0,33.0,30.03,NNE,30,5.0,16.0,78,0.00,,,0.01,,2013-03-07 19:03:00,
2013-03-07 14:12:00,38.0,32.0,30.03,NE,34,4.0,15.0,79,0.00,,,0.00,,2013-03-07 19:12:00,
2013-03-07 14:23:00,38.0,32.0,30.03,NE,34,4.0,15.0,79,0.00,,,0.00,,2013-03-07 19:23:00,
2013-03-07 14:35:00,38.0,32.0,30.04,NE,50,6.0,15.0,80,0.00,,,0.00,,2013-03-07 19:35:00,
2013-03-07 14:43:00,38.0,32.0,30.04,NE,50,6.0,15.0,80,0.00,,,0.00,,2013-03-07 19:43:00,
2013-03-07 14:52:00,38.0,33.0,30.05,NE,49,5.0,15.0,82,0.00,,,0.00,,2013-03-07 19:52:00,
2013-03-07 15:02:00,37.0,33.0,30.05,NE,42,5.0,11.0,86,0.00,,,0.00,,2013-03-07 20:02:00,
2013-03-07 15:13:00,37.0,33.0,30.05,NE,42,5.0,11.0,86,0.00,,,0.00,,2013-03-07 20:13:00,
2013-03-07 15:22:00,37.0,34.0,30.06,NE,39,3.0,11.0,88,0.00,,,0.00,,2013-03-07 20:22:00,
2013-03-07 15:33:00,37.0,34.0,30.06,NE,44,3.0,15.0,89,0.01,,,0.01,,2013-03-07 20:33:00,
2013-03-07 15:43:00,37.0,34.0,30.06,NE,44,3.0,15.0,89,0.01,,,0.01,,2013-03-07 20:43:00,
2013-03-07 15:54:00,37.0,34.0,30.06,NE,44,3.0,15.0,89,0.01,,,0.01,,2013-03-07 20:54:00,
2013-03-07 16:03:00,37.0,34.0,30.06,NE,44,3.0,15.0,89,0.01,,,0.01,,2013-03-07 21:03:00,
2013-03-07 16:12:00,37.0,34.0,30.06,NE,44,3.0,15.0,89,0.01,,,0.01,,2013-03-07 21:12:00,
2013-03-07 16:22:00,36.0,34.0,30.06,NNE,22,3.0,7.0,92,0.02,,,0.02,,2013-03-07 21:22:00,
2013-03-07 16:33:00,35.0,33.0,30.07,NNE,32,2.0,6.0,92,0.01,,,0.02,,2013-03-07 21:33:00,
2013-03-07 16:43:00,35.0,33.0,30.07,NNE,32,2.0,6.0,92,0.01,,,0.02,,2013-03-07 21:43:00,
2013-03-07 16:53:00,35.0,33.0,30.07,NE,38,2.0,10.0,93,0.01,,,0.02,,2013-03-07 21:53:00,
2013-03-07 17:02:00,35.0,33.0,30.07,NE,38,2.0,10.0,93,0.01,,,0.02,,2013-03-07 22:02:00,
2013-03-07 17:12:00,35.0,33.0,30.07,NE,38,2.0,10.0,93,0.01,,,0.02,,2013-03-07 22:12:00,
2013-03-07 17:22:00,35.0,33.0,30.08,NNE,33,2.0,7.0,93,0.01,,,0.03,,2013-03-07 22:22:00,
2013-03-07 17:33:00,35.0,33.0,30.08,NE,47,2.0,8.0,93,0.01,,,0.03,,2013-03-07 22:33:00,
2013-03-07 17:43:00,35.0,33.0,30.08,NE,47,2.0,8.0,93,0.01,,,0.03,,2013-03-07 22:43:00,
2013-03-07 18:03:00,34.0,32.0,30.09,NNE,27,1.0,8.0,94,0.01,,,0.04,,2013-03-07 23:03:00,
2013-03-07 18:13:00,34.0,32.0,30.09,NNE,27,1.0,8.0,94,0.01,,,0.04,,2013-03-07 23:13:00,
2013-03-07 18:22:00,34.0,32.0,30.09,NNE,30,2.0,7.0,94,0.01,,,0.04,,2013-03-07 23:22:00,
2013-03-07 18:33:00,34.0,32.0,30.09,NE,36,2.0,8.0,94,0.01,,,0.04,,2013-03-07 23:33:00,
2013-03-07 18:43:00,34.0,32.0,30.09,NE,36,2.0,8.0,94,0.01,,,0.04,,2013-03-07 23:43:00,
2013-03-07 18:54:00,34.0,33.0,30.09,NE,34,2.0,6.0,95,0.00,,,0.04,,2013-03-07 23:54:00,
2013-03-07 19:04:00,34.0,32.0,30.09,NNE,29,2.0,8.0,94,0.00,,,0.04,,2013-03-08 00:04:00,
2013-03-07 19:13:00,34.0,32.0,30.09,NNE,29,2.0,8.0,94,0.00,,,0.04,,2013-03-08 00:13:00,
2013-03-07 19:23:00,34.0,33.0,30.09,NE,38,1.0,6.0,95,0.01,,,0.05,,2013-03-08 00:23:00,
2013-03-07 19:34:00,34.0,33.0,30.09,NE,38,1.0,6.0,95,0.01,,,0.05,,2013-03-08 00:34:00,
2013-03-07 19:43:00,34.0,33.0,30.09,NE,38,1.0,6.0,95,0.01,,,0.05,,2013-03-08 00:43:00,
2013-03-07 19:54:00,34.0,33.0,30.09,NE,38,2.0,7.0,95,0.01,,,0.05,,2013-03-08 00:54:00,
2013-03-07 20:02:00,34.0,32.0,30.09,NE,36,2.0,5.0,94,0.01,,,0.05,,2013-03-08 01:02:00,
2013-03-07 20:11:00,34.0,32.0,30.09,NE,36,2.0,5.0,94,0.01,,,0.05,,2013-03-08 01:11:00,
2013-03-07 20:22:00,34.0,32.0,30.09,NE,36,2.0,5.0,94,0.01,,,0.05,,2013-03-08 01:22:00,
2013-03-07 20:33:00,34.0,32.0,30.09,NNE,25,2.0,4.0,94,0.01,,,0.06,,2013-03-08 01:33:00,
2013-03-07 20:42:00,34.0,32.0,30.09,NNE,25,2.0,4.0,94,0.01,,,0.06,,2013-03-08 01:42:00,
2013-03-07 20:52:00,34.0,32.0,30.09,NNE,25,2.0,4.0,94,0.01,,,0.06,,2013-03-08 01:52:00,
2013-03-07 21:02:00,34.0,33.0,30.08,NNE,28,1.0,8.0,95,0.01,,,0.06,,2013-03-08 02:02:00,
2013-03-07 21:12:00,34.0,33.0,30.08,NE,50,1.0,9.0,95,0.00,,,0.06,,2013-03-08 02:12:00,
2013-03-07 21:22:00,34.0,33.0,30.08,NE,50,1.0,9.0,95,0.00,,,0.06,,2013-03-08 02:22:00,
2013-03-07 21:32:00,34.0,33.0,30.08,NE,50,1.0,9.0,95,0.00,,,0.06,,2013-03-08 02:32:00,
2013-03-07 21:42:00,34.0,33.0,30.08,NE,50,1.0,9.0,95,0.00,,,0.06,,2013-03-08 02:42:00,
2013-03-07 21:52:00,34.0,33.0,30.08,NE,42,2.0,6.0,95,0.00,,,0.06,,2013-03-08 02:52:00,
2013-03-07 22:02:00,34.0,33.0,30.08,NE,42,2.0,6.0,95,0.00,,,0.06,,2013-03-08 03:02:00,
2013-03-07 22:12:00,34.0,33.0,30.08,NE,42,2.0,6.0,95,0.00,,,0.06,,2013-03-08 03:12:00,
2013-03-07 22:22:00,34.0,33.0,30.07,NE,41,1.0,3.0,95,0.00,,,0.06,,2013-03-08 03:22:00,
2013-03-07 22:32:00,34.0,33.0,30.07,NE,37,2.0,5.0,95,0.00,,,0.06,,2013-03-08 03:32:00,
2013-03-07 22:43:00,34.0,33.0,30.07,NE,37,2.0,5.0,95,0.00,,,0.06,,2013-03-08 03:43:00,
2013-03-07 22:53:00,34.0,33.0,30.06,NE,47,2.0,6.0,95,0.01,,,0.07,,2013-03-08 03:53:00,
2013-03-07 23:02:00,34.0,33.0,30.06,NE,47,2.0,6.0,95,0.01,,,0.07,,2013-03-08 04:02:00,
2013-03-07 23:11:00,34.0,33.0,30.06,NE,47,2.0,6.0,95,0.01,,,0.07,,2013-03-08 04:11:00,
2013-03-07 23:22:00,34.0,33.0,30.07,NE,44,1.0,3.0,95,0.01,,,0.07,,2013-03-08 04:22:00,
2013-03-07 23:32:00,34.0,33.0,30.07,NE,44,1.0,3.0,95,0.01,,,0.07,,2013-03-08 04:32:00,
2013-03-07 23:52:00,34.0,33.0,30.07,NE,41,0.0,3.0,95,0.00,,,0.07,,2013-03-08 04:52:00,